Powrót do katalogu

USA 365

AktywnyMilitariaVLEO
NORAD 59825·PAYLOAD·🇺🇸 United States

Wystrzelony May 22, 2024 z Vandenberg Space Force Base

Loading…

Następne Przeloty (najbliższe 24 godziny)

TLE

NieaktualneSource: Mike McCants

Epoka: Aug 25, 2026, 21:14 UTC

1 59825U 24096M   26237.88505820 0.00000000  00000-0  00000-0 0    09
2 59825  70.0190 152.1676 0002000  64.4332 295.5667 14.96713608    05

Śledź USA 365 w czasie rzeczywistym z AllMySat

Download on the App Store